This is the latest recevied weather packets stored in our database for station/object SP6PWT-13. If no packets are shown the sender has not sent any weather packets the latest 1 day(s).
| Time | Temp. | Humidity | Pressure | Rain* | Wind** | Luminosity | Snow |
|---|---|---|---|---|---|---|---|
| 1777955199 | 13.89° C | 77% | 993.4 hPa | 0 mm | 0 m/s | 50 W/m² | - |
| 1777954898 | 13.33° C | 80% | 993.2 hPa | 0 mm | 0 m/s | 44 W/m² | - |
| 1777954597 | 12.78° C | 81% | 993.2 hPa | 0 mm | 0.45 m/s, 146° | 40 W/m² | - |
| 1777954297 | 12.78° C | 81% | 993.4 hPa | 0 mm | 2.24 m/s, 134° | 42 W/m² | - |
| 1777953997 | 12.78° C | 80% | 993.4 hPa | 0 mm | 1.34 m/s, 153° | 35 W/m² | - |
| 1777953695 | 12.78° C | 81% | 993.3 hPa | 0 mm | 1.34 m/s, 152° | 26 W/m² | - |
| 1777953395 | 12.78° C | 83% | 993.4 hPa | 0 mm | 1.34 m/s, 152° | 22 W/m² | - |
| 1777953095 | 12.78° C | 84% | 993.4 hPa | 0 mm | 0.89 m/s, 152° | 17 W/m² | - |
| 1777952793 | 12.78° C | 84% | 993.2 hPa | 0 mm | 1.34 m/s, 147° | 13 W/m² | - |
| 1777952493 | 12.78° C | 84% | 993.4 hPa | 0 mm | 1.34 m/s, 141° | 11 W/m² | - |
| 1777952193 | 12.78° C | 83% | 993.3 hPa | 0 mm | 0.89 m/s, 155° | 9 W/m² | - |
| 1777951892 | 12.78° C | 81% | 993.4 hPa | 0 mm | 1.34 m/s, 151° | 6 W/m² | - |
| 1777951591 | 12.78° C | 82% | 993.4 hPa | 0 mm | 1.34 m/s, 160° | 4 W/m² | - |
| 1777951291 | 12.78° C | 82% | 993.6 hPa | 0 mm | 0.89 m/s, 101° | 3 W/m² | - |
| 1777950989 | 13.33° C | 81% | 993.4 hPa | 0 mm | 2.24 m/s, 108° | 1 W/m² | - |
| 1777950689 | 13.89° C | 79% | 993.5 hPa | 0 mm | 2.24 m/s, 129° | 1 W/m² | - |
| 1777950389 | 13.89° C | 78% | 993.5 hPa | 0 mm | 1.34 m/s, 95° | 0 W/m² | - |
| 1777950077 | 13.89° C | 78% | 993.3 hPa | 0 mm | 0 m/s | 0 W/m² | - |
| 1777949777 | 13.89° C | 78% | 993.4 hPa | 0 mm | 0.45 m/s, 70° | 0 W/m² | - |
| 1777949476 | 13.89° C | 78% | 993.6 hPa | 0 mm | 0.45 m/s, 75° | 0 W/m² | - |
| 1777949176 | 13.89° C | 77% | 993.6 hPa | 0 mm | 0 m/s | 0 W/m² | - |
| 1777948866 | 13.89° C | 77% | 993.8 hPa | 0 mm | 0 m/s | 0 W/m² | - |
| 1777948565 | 14.44° C | 76% | 993.8 hPa | 0 mm | 0 m/s | 0 W/m² | - |
| 1777948254 | 14.44° C | 76% | 993.7 hPa | 0 mm | 0 m/s | 0 W/m² | - |
| 1777947954 | 13.89° C | 76% | 994 hPa | 0 mm | 0 m/s | 0 W/m² | - |
* Rain latest hour (hover to see other rain measurements)
** Current wind speed in m/s (hover to see current wind gust speed)